Home > Weather > Plauen > Past weeks

Flag for Germany Past Weather in Plauen, Saxony, Germany — Yesterday and Last 2 Weeks

Now
55 °F

Clear.


Feels Like: 55 °F
Forecast: 57 / 89 °F
Wind: 3 mph from Northeast

Location: Karlovy Vary Airport

Current Time: Aug 25, 2016 at 3:12:56 AM

Latest Report: Aug 25, 2016 at 3:00 AM


Visibility: 10 mi

Pressure: 30.27 "Hg

Humidity: 88%

Dew Point: 52 °F

Location of PlauenLocation

Past Weather in Plauen — Graph

°F

Plauen Temperature Yesterday

Maximum temperature yesterday: 79 °F (at 5:30 PM)
Minimum temperature yesterday: 54 °F (at 5:00 AM)
Average temperature yesterday: 69 °F

High & Low Weather Summary for the Past Weeks

 TemperatureHumidityPressure
High79 °F (Aug 20, 2:30 PM)100% (Aug 10, 2:00 AM)30.39 "Hg (Aug 10, 2:00 AM)
Low37 °F (Aug 11, 5:00 AM)31% (Aug 19, 11:30 AM)29.83 "Hg (Aug 18, 3:00 PM)
Average61 °F70%30.14 "Hg
* Reported Aug 10 2:00 AM — Aug 25 2:00 AM, Plauen, Weather by CustomWeather, © 2016

Note: Actual official high and low records may vary slightly from our data, if they occured in-between our weather recording intervals... More about our weather records

Advertising

Plauen Weather History for the Previous 24 Hours

Scroll right to see more
 ConditionsComfort  
Time TempWeatherWind HumidityBarometerVisibility
2:00 AM
Thu, Aug 25
57 °FClear.2 mph82%30.27 "Hg10 mi
1:00 AM59 °FClear.3 mph77%30.27 "Hg10 mi
12:00 AM61 °FClear.3 mph72%30.27 "Hg10 mi
11:00 PM
Wed, Aug 24
63 °FClear.3 mph73%30.27 "Hg10 mi
10:00 PM64 °FClear.6 mph68%30.27 "Hg10 mi
9:00 PM66 °FSunny.5 mph68%30.30 "Hg10 mi
8:30 PM68 °FSunny.6 mph64%30.27 "Hg10 mi
8:00 PM70 °FSunny.7 mph64%30.27 "Hg10 mi
7:30 PM73 °FSunny.6 mph57%30.27 "Hg10 mi
7:00 PM75 °FSunny.7 mph50%30.27 "Hg10 mi
6:30 PM77 °FPassing clouds.7 mph47%30.27 "HgN/A
6:00 PM77 °FPassing clouds.5 mph44%30.30 "HgN/A
5:30 PM79 °FPassing clouds.8 mph39%30.30 "HgN/A
5:00 PM77 °FPassing clouds.7 mph42%30.30 "HgN/A
4:30 PM77 °FPassing clouds.7 mph44%30.30 "HgN/A
4:00 PM77 °FPassing clouds.6 mph51%30.30 "HgN/A
3:30 PM77 °FPassing clouds.5 mph47%30.30 "HgN/A
3:00 PM77 °FPassing clouds.3 mph51%30.33 "HgN/A
2:30 PM77 °FPassing clouds.5 mph51%30.33 "HgN/A
2:00 PM77 °FPassing clouds.7 mph54%30.33 "HgN/A
1:30 PM75 °FScattered clouds.5 mph54%30.33 "HgN/A
1:00 PM77 °FScattered clouds.3 mph51%30.33 "HgN/A
12:30 PM75 °FPassing clouds.6 mph54%30.33 "HgN/A
12:00 PM73 °FPassing clouds.3 mph57%30.33 "HgN/A
11:30 AM75 °FPassing clouds.1 mph57%30.33 "HgN/A
11:00 AM73 °FPassing clouds.3 mph61%30.36 "HgN/A
10:30 AM72 °FPassing clouds.2 mph65%30.36 "HgN/A
10:00 AM72 °FPassing clouds.3 mph61%30.36 "HgN/A
9:30 AM68 °FPassing clouds.3 mph73%30.36 "HgN/A
9:00 AM68 °FSunny.2 mph69%30.36 "Hg10 mi
8:30 AM64 °FPassing clouds.No wind78%30.36 "HgN/A
8:00 AM59 °FPassing clouds.1 mph88%30.36 "HgN/A
7:00 AM54 °FFog.3 mph100%30.36 "HgN/A
6:00 AM54 °FFog.No wind94%30.36 "HgN/A
5:00 AM54 °FClear.5 mph94%30.33 "Hg10 mi
4:00 AM55 °FClear.1 mph94%30.36 "Hg10 mi
3:00 AM55 °FClear.1 mph94%30.36 "Hg10 mi
Weather by CustomWeather, © 2016

See weather overviewHow to use our weather pages